Location: Miles
(41.4492°N, 81.6087°W)
Time: 11:01:28
(UTC+00:00)

Courier 1B - Pass Details

Date: 20 September 2024
Orbit: 962 x 1208 km, 28.3° (Epoch: 04 October)

Event Time Altitude Azimuth Distance (km) Brightness Sun altitude
Rises 19:37:02 0° 249° (WSW) 3,790 11.4 38.8°
Reaches altitude 10° 19:40:04 10° 238° (WSW) 2,876 11.2 38.4°
Maximum altitude 19:45:55 28° 182° (S) 1,924 10.0 37.6°
Drops below altitude 10° 19:52:02 10° 127° (SE) 3,029 10.1 36.7°
Sets 19:55:20 0° 116° (ESE) 4,025 10.5 36.2°
